Wind_Speed
18 15 16 21 20 21 18 20 21 18 16 15 11 12 12 14 13 13 15 18 17 18 19 23 25 24 25 26 25 24 22 22 18 16 15 15 15 18 12 11 8 6 6 6
19 20 21 21 21 20 18 19 17 19 15 16 16 19 11 18 15 9 12 16 21 19 18 20 26 25 27 27 26 25 23 24 18 18 20 16 12 13 7 8 9 6 7 9
22 21 22 23 17 18 18 15 17 16 17 16 16 19 11 17 17 17 11 8 17 18 18 20 21 27 27 27 28 26 26 20 17 16 13 9 6 8 8 9 11 10 9 8
22 23 23 21 21 16 20 15 19 18 15 12 14 14 15 17 14 15 7 8 7 17 15 19 22 25 28 27 28 27 24 15 17 17 11 12 10 9 5 13 17 16 12 9
24 22 20 20 19 18 17 15 18 16 15 16 16 10 14 5 16 9 9 12 2 3 15 20 23 28 27 26 25 25 12 9 10 15 15 14 11 11 11 6 12 14 13 10
26 23 20 19 17 20 13 16 18 14 15 13 16 15 14 15 7 10 10 6 9 6 4 14 28 31 26 26 25 21 15 6 5 9 10 12 4 6 6 5 4 9 9 13
26 27 23 21 14 14 16 17 12 13 12 13 19 17 12 9 14 13 12 10 6 5 4 9 19 18 24 27 21 17 13 5 4 6 9 9 7 6 7 7 4 8 8 10
21 22 25 24 18 14 19 18 13 14 14 15 15 13 12 19 12 17 7 6 6 4 4 8 20 17 25 24 18 17 11 6 4 4 5 7 7 7 5 8 7 8 8 8
20 26 22 26 22 18 19 16 16 18 19 14 13 6 7 9 6 7 8 14 11 11 6 10 18 20 20 20 19 19 11 10 6 4 6 7 7 5 6 7 7 6 7 10
23 23 26 23 23 24 21 15 14 12 16 16 15 13 6 15 10 17 15 13 11 10 8 14 13 17 18 19 20 21 15 13 8 2 5 9 8 8 5 7 8 9 9 11
25 19 22 22 19 20 15 17 17 18 12 12 13 3 9 11 10 13 14 13 12 12 10 11 12 14 16 17 21 22 17 22 18 15 10 10 11 10 8 9 11 10 11 10
26 18 15 25 15 24 17 17 20 12 13 13 13 7 10 3 5 15 14 14 13 13 11 11 12 14 16 18 20 19 16 14 8 11 14 12 11 10 12 12 14 14 13 12
10 13 13 18 18 13 17 21 17 17 13 18 13 3 8 7 7 9 14 13 12 14 13 8 10 10 14 17 19 19 18 15 12 9 11 14 13 14 13 15 14 14 14 12
7 9 9 13 17 13 13 21 20 16 9 14 16 13 6 4 9 1 12 12 12 11 12 10 7 6 10 9 11 13 17 17 15 16 16 14 15 15 14 14 14 14 13 12
5 9 13 16 21 20 17 14 20 18 19 16 7 9 17 15 16 8 8 10 11 11 11 9 8 7 8 9 12 14 17 18 18 18 15 14 13 14 13 12 12 14 13 14
18 10 11 17 16 18 16 17 18 20 22 20 16 14 21 15 10 8 1 8 11 10 12 10 8 8 8 12 13 15 16 17 19 19 18 20 16 18 17 16 15 14 14 14
9 11 8 15 18 18 14 18 22 11 8 11 16 15 13 14 10 12 5 5 7 7 8 10 9 8 12 15 16 15 17 19 19 19 18 23 22 20 19 18 17 15 14 13
5 10 10 10 11 15 10 23 19 4 19 11 26 23 15 4 10 12 9 8 10 11 11 12 7 4 9 14 17 15 17 19 21 21 20 23 22 21 21 20 19 18 17 15
13 10 9 9 11 7 12 11 15 31 17 17 10 31 29 21 17 10 8 10 10 7 7 11 13 14 19 10 12 20 20 20 22 23 23 22 23 22 22 23 21 19 18 16
13 7 8 10 12 6 5 6 16 25 8 15 16 15 10 17 12 8 9 9 8 11 10 7 8 15 15 15 18 14 21 23 23 21 21 22 23 22 22 22 21 19 18 17
10 11 14 12 10 5 6 7 13 11 5 11 12 14 15 13 8 8 8 7 9 10 9 12 15 12 11 13 11 11 17 23 36 29 28 27 25 23 22 22 21 20 19 18
2 3 10 13 13 10 9 11 5 5 5 12 10 12 11 11 10 9 10 10 11 10 13 12 10 9 7 10 7 3 8 29 47 64 33 29 27 23 20 20 21 20 20 20
6 5 5 7 6 11 14 14 9 9 11 8 10 9 12 10 9 11 10 11 11 13 14 15 14 11 8 11 12 5 7 15 26 21 33 27 24 22 20 22 20 21 21 20
11 9 3 3 9 12 13 14 12 10 8 8 9 11 10 9 9 10 10 8 10 14 16 17 16 18 17 15 13 12 13 14 14 8 13 20 14 17 20 20 22 20 20 21
2 7 7 2 7 16 11 13 13 13 11 10 11 12 11 9 10 9 8 9 10 15 16 18 18 18 17 20 21 20 14 14 15 16 15 9 11 20 19 19 18 20 21 20
3 4 3 1 19 14 10 11 14 12 10 11 11 10 9 10 7 11 9 13 14 15 17 16 18 15 18 19 20 22 21 19 18 13 9 12 14 19 20 20 14 10 11 7
Wind_Direction
235 237 241 242 244 240 260 274 288 296 306 320 312 288 286 281 271 274 173 177 182 189 188 189 182 181 178 171 170 168 180 197 195 196 213 199 209 232 214 200 187 199 252 241
240 239 242 254 258 265 259 266 269 274 288 290 287 282 284 277 284 292 265 182 180 185 185 178 174 179 181 177 169 169 200 211 192 198 220 207 195 199 198 193 196 195 210 221
240 243 240 243 248 260 260 267 282 279 280 283 288 277 264 262 268 245 242 230 184 176 181 173 169 177 185 177 172 171 203 199 190 211 229 239 259 203 199 194 189 190 209 222
241 246 248 259 241 237 253 249 254 260 268 268 270 275 260 252 258 240 248 117 270 166 175 164 168 177 184 176 170 168 199 193 198 202 212 208 216 230 231 217 201 183 186 203
249 248 250 251 242 253 264 266 271 284 278 273 267 262 273 186 243 206 128 118 79 97 167 163 169 177 176 172 159 177 179 194 203 204 218 211 212 251 235 224 167 173 179 204
246 247 257 261 247 253 243 267 269 262 265 264 260 257 266 265 120 354 52 79 128 142 244 169 166 168 170 152 152 167 164 184 216 203 236 245 258 245 291 263 195 177 196 207
240 250 253 255 264 237 240 239 245 246 244 249 246 241 241 264 153 212 164 120 126 100 255 146 149 154 138 138 160 164 159 162 210 225 225 223 242 236 231 248 202 194 194 207
233 240 238 249 227 246 250 232 237 239 244 247 232 243 235 233 171 156 233 146 106 134 105 147 136 138 134 145 156 164 148 162 195 233 219 196 184 190 207 225 182 184 174 181
242 250 251 230 225 214 244 255 244 258 274 278 280 261 350 346 153 196 144 105 102 97 118 118 113 131 148 155 167 174 147 158 162 206 190 194 181 209 202 169 154 160 170 173
233 251 253 236 218 221 222 245 236 234 247 271 282 283 347 187 199 109 99 104 103 117 141 121 135 152 166 173 172 174 158 170 168 166 215 199 190 191 162 147 156 142 158 159
244 232 246 255 238 223 204 221 249 264 244 242 245 61 92 61 74 101 117 124 137 133 150 146 153 158 164 166 173 180 162 188 187 156 217 175 168 169 162 142 146 152 159 170
230 225 228 252 236 219 222 224 216 244 257 268 283 327 34 161 146 127 128 145 144 146 153 162 138 146 169 166 172 179 176 182 202 187 172 180 159 167 163 155 148 155 154 164
333 239 222 242 247 235 208 240 235 218 233 264 281 143 172 113 73 116 143 150 147 147 145 156 129 161 166 171 172 173 176 191 178 200 187 183 168 174 168 165 158 161 157 162
306 288 286 244 237 213 225 222 233 244 240 232 245 244 45 68 126 78 149 148 148 140 148 147 161 160 152 160 150 156 181 188 182 185 203 183 180 175 176 167 169 162 160 162
326 298 291 283 254 270 280 233 261 243 253 250 122 109 94 72 343 348 146 157 149 145 159 151 170 176 154 157 163 183 187 185 179 186 196 183 192 175 179 174 176 172 175 174
331 251 264 278 273 259 260 253 248 256 241 244 222 135 146 154 127 83 75 156 154 158 172 161 183 176 183 175 186 185 182 180 181 189 193 184 191 182 183 181 184 184 190 187
3 316 256 251 250 264 260 242 261 254 319 264 221 106 69 80 60 57 15 56 111 153 171 165 180 178 188 187 199 196 190 188 194 196 197 182 188 187 185 187 186 187 197 189
104 293 284 281 282 257 340 357 321 268 102 122 108 108 96 3 63 57 16 52 46 26 16 12 22 224 199 210 203 203 211 201 200 204 198 182 189 188 187 188 190 189 196 196
195 263 288 281 272 326 313 11 357 333 69 43 74 133 154 153 130 121 85 38 72 46 19 7 352 333 344 305 203 193 209 213 209 204 194 192 193 196 193 190 194 191 193 198
199 220 255 263 277 215 240 332 322 331 72 23 66 67 66 162 114 83 64 53 50 34 47 44 25 23 7 349 320 224 209 220 215 208 203 206 197 201 200 192 193 193 196 196
268 229 238 240 251 122 179 212 48 328 13 59 39 60 58 64 67 73 51 41 34 32 49 26 41 54 22 9 353 39 19 355 331 272 208 202 199 200 203 195 193 191 198 204
12 21 278 250 251 223 129 99 174 163 64 51 61 60 73 66 56 53 46 29 24 19 22 20 16 32 35 26 355 339 314 318 298 321 208 189 192 190 200 201 194 194 200 211
337 138 291 328 60 81 66 100 70 58 66 61 73 61 58 69 53 51 39 23 19 18 17 8 4 10 37 43 39 21 302 258 255 304 302 211 181 191 201 204 201 199 205 213
18 31 267 355 97 104 104 100 84 83 87 75 61 64 74 38 53 53 42 25 24 17 18 17 13 15 13 11 17 26 1 333 327 259 253 234 194 204 211 210 212 207 210 216
83 328 329 355 199 103 95 103 108 93 65 47 53 47 39 51 5 41 32 35 26 31 18 19 23 7 358 10 29 21 3 345 337 329 319 266 220 216 221 224 228 223 226 224
349 281 40 313 248 92 109 104 96 83 68 61 59 48 36 38 18 31 35 27 36 29 26 23 33 32 13 3 16 21 9 355 341 318 306 318 284 245 227 221 201 215 208 182
Height
732 750 757 743 731 728 729 732 730 711 695 704 709 710 702 689 683 683 686 689 700 705 709 720 729 736 742 747 753 758 763 764 768 776 777 782 781 783 781 780 784 785 785 786
741 749 730 721 718 721 723 731 732 714 703 708 712 714 695 688 683 680 679 682 685 693 700 710 721 730 736 742 749 755 759 760 767 769 769 773 777 777 778 778 780 783 784 785
741 729 713 718 723 730 725 734 731 730 710 702 711 720 707 689 679 673 669 669 674 681 691 702 714 722 730 737 746 752 756 761 765 768 770 773 774 775 775 776 777 779 782 783
726 708 714 715 720 717 737 713 717 721 728 748 707 750 709 691 687 675 670 671 674 677 683 694 707 715 723 733 743 750 756 762 764 767 769 769 770 770 771 772 773 774 779 781
724 714 714 718 716 708 725 709 715 716 725 726 725 737 715 692 699 681 675 674 678 678 679 688 700 708 720 731 740 748 758 762 764 766 767 767 767 768 768 770 770 774 777 780
707 690 696 699 696 698 700 715 717 718 724 752 728 730 722 700 701 696 681 677 681 678 677 681 692 706 718 728 738 747 756 762 764 764 765 765 765 766 767 771 773 774 776 778
711 706 691 687 704 695 706 726 759 764 756 755 707 719 709 679 678 680 682 677 677 678 678 682 692 705 717 730 740 748 754 760 763 763 763 763 764 764 766 770 771 773 774 777
728 737 702 687 699 716 711 717 745 773 758 734 696 723 698 662 659 670 667 668 674 678 681 686 696 708 721 733 740 748 753 758 761 762 762 762 763 764 764 768 769 771 772 775
718 717 680 679 680 692 713 721 700 727 717 730 710 689 673 665 665 664 667 674 678 682 688 691 701 713 723 732 740 746 753 758 761 761 762 761 761 762 764 765 766 768 771 773
693 720 683 673 669 676 693 689 726 718 758 759 723 709 714 685 676 675 681 684 686 688 692 698 707 716 723 730 738 745 750 754 757 759 758 762 761 763 764 765 766 767 772 774
675 694 697 675 683 691 695 705 703 701 709 737 741 726 678 690 685 685 686 687 688 692 697 701 708 716 723 729 736 742 746 749 753 752 757 760 760 762 764 765 765 768 771 774
665 681 704 691 664 662 672 688 695 720 730 711 714 719 679 679 677 674 685 688 687 690 696 701 706 716 721 727 733 739 743 749 754 755 755 759 758 762 764 767 765 768 770 773
673 681 707 702 684 668 683 679 679 686 698 718 727 734 683 681 682 678 687 689 688 690 699 704 710 716 721 726 732 736 741 745 749 754 756 757 758 761 764 766 766 769 769 772
672 682 694 708 696 686 691 682 676 683 709 708 705 698 703 697 696 691 689 690 691 694 700 708 714 717 721 725 731 735 740 743 746 750 754 754 756 759 762 764 767 768 769 771
677 701 689 680 674 673 679 689 681 689 686 703 703 715 733 740 715 702 694 698 698 698 705 710 715 718 720 726 731 736 738 741 744 748 751 753 756 759 762 764 766 767 770 771
694 703 692 695 675 674 684 680 682 685 675 677 681 699 708 709 700 704 704 701 700 701 706 708 713 717 719 724 728 732 735 738 740 743 745 748 753 754 758 761 764 766 770 770
730 714 704 710 685 683 699 682 673 673 665 665 681 704 703 711 716 711 716 707 700 701 702 705 710 713 718 723 727 729 731 734 736 738 741 743 746 751 754 758 761 763 767 769
741 764 707 710 695 725 688 677 662 664 674 674 711 726 726 729 718 720 723 718 711 710 711 711 712 716 717 720 723 728 733 734 735 737 738 740 743 745 748 752 756 759 763 766
693 705 711 716 711 721 698 707 726 746 689 684 694 691 718 716 726 734 723 718 719 721 722 721 722 722 721 720 721 723 727 731 731 731 733 736 739 743 744 745 749 753 758 761
684 692 712 711 721 744 735 715 730 727 708 689 695 701 706 694 730 737 727 724 726 723 723 723 725 726 725 723 721 723 724 728 728 730 734 736 737 739 740 742 744 749 753 757
705 702 711 710 716 717 726 721 728 761 744 705 708 703 711 728 732 729 729 729 725 723 725 726 725 728 728 727 725 725 726 732 728 729 719 725 731 735 738 739 742 743 749 752
736 760 718 700 710 724 721 726 742 729 716 711 719 715 720 723 730 729 728 728 727 727 727 727 727 727 727 729 727 727 723 718 727 708 706 707 722 725 733 738 737 739 744 747
762 764 763 734 734 722 716 721 717 719 721 727 727 727 725 728 732 731 732 732 732 730 730 729 727 726 728 728 729 730 731 720 714 705 705 695 712 722 724 732 735 735 738 741
731 747 735 748 729 730 728 726 726 728 732 731 729 728 732 733 734 734 737 735 734 733 733 732 731 729 730 731 732 732 731 728 718 714 711 699 715 715 722 727 730 731 734 736
748 750 746 750 737 724 733 725 726 730 732 731 729 731 733 736 737 735 737 736 736 738 738 738 737 734 732 733 736 736 734 732 728 722 717 711 710 717 723 725 725 728 731 731
763 757 763 766 749 719 736 729 725 730 732 732 733 736 738 740 741 739 740 741 742 742 742 742 743 742 737 734 735 737 737 736 732 729 727 722 719 718 718 718 718 721 726 729